| time (UTC) | temp C | wind direction | speed KPH | gust KPH | rain 1hr cm | rain 24hr cm | rain mn cm | humidity % | barometer mb |
| 20260507130703 | 12 | 12 | 3.2 | 4.8 | 0.00 | 0.53 | 0.13 | 92 | 1013.2 |
| 20260507130202 | 12 | 0 | 1.6 | 8.0 | 0.00 | 0.53 | 0.13 | 92 | 1013.3 |
| 20260507125702 | 12 | 12 | 3.2 | 4.8 | 0.00 | 0.53 | 0.13 | 91 | 1013.3 |
| 20260507125202 | 12 | 1 | 1.6 | 4.8 | 0.00 | 0.53 | 0.13 | 91 | 1013.4 |
| 20260507124703 | 12 | 303 | 1.6 | 4.8 | 0.00 | 0.53 | 0.13 | 91 | 1013.4 |
| 20260507124202 | 12 | 314 | 3.2 | 4.8 | 0.00 | 0.56 | 0.13 | 91 | 1013.4 |
| 20260507123703 | 12 | 336 | 1.6 | 4.8 | 0.00 | 0.56 | 0.13 | 92 | 1013.1 |
| 20260507123203 | 12 | 333 | 1.6 | 4.8 | 0.00 | 0.56 | 0.13 | 92 | 1012.8 |
| 20260507122702 | 12 | 14 | 3.2 | 4.8 | 0.00 | 0.56 | 0.13 | 92 | 1012.6 |
| 20260507122203 | 12 | 353 | 1.6 | 4.8 | 0.03 | 0.56 | 0.13 | 92 | 1013.0 |
| 20260507121702 | 12 | 326 | 1.6 | 3.2 | 0.03 | 0.56 | 0.13 | 92 | 1012.9 |
| 20260507120702 | 12 | 354 | 1.6 | 3.2 | 0.03 | 0.56 | 0.13 | 92 | 1013.1 |
| 20260507120203 | 12 | 26 | 1.6 | 4.8 | 0.03 | 0.56 | 0.13 | 92 | 1013.4 |
| 20260507115703 | 12 | 23 | 1.6 | 3.2 | 0.03 | 0.58 | 0.13 | 92 | 1013.2 |
| 20260507115202 | 12 | 13 | 1.6 | 3.2 | 0.03 | 0.61 | 0.13 | 92 | 1013.3 |
| 20260507114702 | 12 | 38 | 1.6 | 3.2 | 0.03 | 0.64 | 0.13 | 92 | 1013.5 |
| 20260507114202 | 12 | 317 | 1.6 | 4.8 | 0.03 | 0.64 | 0.13 | 92 | 1013.6 |
| 20260507113703 | 12 | 333 | 1.6 | 3.2 | 0.03 | 0.64 | 0.13 | 92 | 1013.5 |
| 20260507113202 | 12 | 7 | 0.0 | 3.2 | 0.05 | 0.64 | 0.13 | 92 | 1013.3 |
| 20260507112702 | 12 | 30 | 1.6 | 3.2 | 0.05 | 0.66 | 0.13 | 92 | 1013.3 |
| 20260507111702 | 12 | 284 | 1.6 | 3.2 | 0.03 | 0.64 | 0.10 | 92 | 1013.1 |
| 20260507111202 | 12 | 287 | 1.6 | 4.8 | 0.03 | 0.64 | 0.10 | 92 | 1013.0 |
| 20260507110703 | 12 | 28 | 1.6 | 4.8 | 0.03 | 0.64 | 0.10 | 92 | 1012.8 |
| 20260507110202 | 12 | 19 | 3.2 | 8.0 | 0.03 | 0.64 | 0.10 | 92 | 1012.8 |
| 20260507105703 | 12 | 15 | 3.2 | 4.8 | 0.03 | 0.64 | 0.10 | 92 | 1012.8 |
| 20260507104703 | 12 | 15 | 3.2 | 8.0 | 0.03 | 0.64 | 0.10 | 92 | 1012.6 |
| 20260507104203 | 12 | 348 | 3.2 | 4.8 | 0.03 | 0.64 | 0.10 | 92 | 1012.3 |
| 20260507103702 | 12 | 23 | 1.6 | 8.0 | 0.03 | 0.64 | 0.10 | 92 | 1012.4 |
| 20260507103202 | 12 | 21 | 3.2 | 4.8 | 0.00 | 0.61 | 0.08 | 92 | 1012.1 |
| 20260507102703 | 12 | 5 | 3.2 | 4.8 | 0.00 | 0.61 | 0.08 | 92 | 1012.2 |
| 20260507102203 | 12 | 23 | 1.6 | 4.8 | 0.00 | 0.61 | 0.08 | 92 | 1012.3 |
| 20260507101202 | 12 | 26 | 1.6 | 3.2 | 0.00 | 0.61 | 0.08 | 92 | 1012.6 |
| 20260507100703 | 12 | 295 | 1.6 | 4.8 | 0.00 | 0.61 | 0.08 | 92 | 1012.4 |
| 20260507100202 | 12 | 4 | 1.6 | 4.8 | 0.00 | 0.61 | 0.08 | 92 | 1012.4 |
| 20260507095702 | 12 | 333 | 1.6 | 4.8 | 0.00 | 0.61 | 0.08 | 92 | 1012.3 |
| 20260507094703 | 13 | 22 | 1.6 | 4.8 | 0.00 | 0.61 | 0.08 | 92 | 1012.1 |
| 20260507094202 | 13 | 15 | 3.2 | 4.8 | 0.00 | 0.61 | 0.08 | 92 | 1012.2 |
| 20260507093702 | 13 | 9 | 1.6 | 4.8 | 0.00 | 0.61 | 0.08 | 92 | 1012.1 |
| 20260507093203 | 13 | 1 | 1.6 | 4.8 | 0.00 | 0.61 | 0.08 | 92 | 1011.9 |
| 20260507092703 | 13 | 1 | 3.2 | 8.0 | 0.00 | 0.61 | 0.08 | 92 | 1011.8 |
| 20260507092203 | 13 | 33 | 3.2 | 4.8 | 0.00 | 0.61 | 0.08 | 92 | 1011.8 |
| 20260507091703 | 13 | 45 | 3.2 | 8.0 | 0.00 | 0.61 | 0.08 | 92 | 1012.0 |
| 20260507091203 | 13 | 11 | 1.6 | 8.0 | 0.00 | 0.61 | 0.08 | 92 | 1011.7 |
| 20260507090703 | 13 | 2 | 3.2 | 4.8 | 0.00 | 0.61 | 0.08 | 92 | 1012.0 |
| 20260507090203 | 13 | 36 | 3.2 | 8.0 | 0.00 | 0.61 | 0.08 | 92 | 1012.1 |
| 20260507085703 | 13 | 21 | 4.8 | 9.7 | 0.00 | 0.61 | 0.08 | 91 | 1012.2 |
| 20260507085203 | 14 | 27 | 4.8 | 16.1 | 0.00 | 0.61 | 0.08 | 91 | 1012.1 |
| 20260507084704 | 14 | 27 | 4.8 | 14.5 | 0.00 | 0.61 | 0.08 | 92 | 1012.1 |
| 20260507084202 | 15 | 351 | 4.8 | 12.9 | 0.03 | 0.61 | 0.08 | 93 | 1012.0 |
| 20260507083703 | 15 | 322 | 3.2 | 4.8 | 0.03 | 0.61 | 0.08 | 93 | 1011.7 |
| 20260507082702 | 15 | 306 | 3.2 | 4.8 | 0.03 | 0.61 | 0.08 | 93 | 1011.5 |
| 20260507082202 | 15 | 340 | 1.6 | 4.8 | 0.03 | 0.61 | 0.08 | 93 | 1011.4 |
| 20260507081702 | 15 | 352 | 3.2 | 8.0 | 0.05 | 0.61 | 0.08 | 93 | 1011.4 |
| 20260507080202 | 15 | 40 | 1.6 | 4.8 | 0.08 | 0.61 | 0.08 | 93 | 1012.1 |
| 20260507075702 | 15 | 310 | 1.6 | 4.8 | 0.08 | 0.61 | 0.08 | 93 | 1012.1 |
| 20260507075203 | 15 | 263 | 1.6 | 4.8 | 0.08 | 0.61 | 0.08 | 93 | 1012.0 |
| 20260507074702 | 16 | 322 | 1.6 | 4.8 | 0.08 | 0.61 | 0.08 | 93 | 1011.9 |
| 20260507074203 | 16 | 321 | 1.6 | 4.8 | 0.05 | 0.58 | 0.05 | 93 | 1011.9 |
| 20260507073703 | 16 | 11 | 3.2 | 8.0 | 0.05 | 0.58 | 0.05 | 93 | 1011.8 |
| 20260507073203 | 16 | 15 | 1.6 | 9.7 | 0.05 | 0.58 | 0.05 | 92 | 1011.8 |
| 20260507072703 | 16 | 43 | 4.8 | 9.7 | 0.05 | 0.58 | 0.05 | 93 | 1011.6 |
| 20260507072203 | 16 | 17 | 3.2 | 4.8 | 0.05 | 0.58 | 0.05 | 93 | 1011.8 |
| 20260507071702 | 16 | 23 | 3.2 | 4.8 | 0.03 | 0.58 | 0.03 | 93 | 1011.8 |
| 20260507071203 | 16 | 17 | 3.2 | 4.8 | 0.00 | 0.56 | 0.00 | 93 | 1012.0 |
| 20260507070702 | 16 | 7 | 1.6 | 4.8 | 0.00 | 0.56 | 0.00 | 93 | 1011.7 |
| 20260507070203 | 16 | 330 | 1.6 | 3.2 | 0.00 | 0.56 | 0.00 | 93 | 1011.9 |
| 20260507065703 | 16 | 287 | 1.6 | 4.8 | 0.00 | 0.56 | 0.00 | 93 | 1012.2 |
| 20260507065202 | 16 | 306 | 1.6 | 4.8 | 0.00 | 0.56 | 0.00 | 93 | 1012.0 |
| 20260507064702 | 16 | 249 | 1.6 | 3.2 | 0.00 | 0.56 | 0.00 | 93 | 1012.0 |
| 20260507064202 | 16 | 286 | 1.6 | 4.8 | 0.00 | 0.56 | 0.00 | 93 | 1012.0 |
| 20260507063703 | 16 | 281 | 3.2 | 4.8 | 0.00 | 0.56 | 0.00 | 93 | 1012.0 |
| 20260507062703 | 16 | 276 | 1.6 | 4.8 | 0.00 | 0.56 | 0.00 | 93 | 1012.1 |
| 20260507061702 | 16 | 282 | 3.2 | 4.8 | 0.00 | 0.56 | 0.00 | 93 | 1012.6 |
| 20260507060703 | 16 | 24 | 1.6 | 4.8 | 0.00 | 0.56 | 0.00 | 93 | 1012.6 |
| 20260507060203 | 16 | 43 | 1.6 | 4.8 | 0.00 | 0.56 | 0.00 | 93 | 1012.7 |
| 20260507055703 | 16 | 110 | 1.6 | 3.2 | 0.00 | 0.56 | 0.00 | 92 | 1012.9 |
| 20260507055202 | 16 | 7 | 1.6 | 3.2 | 0.00 | 0.56 | 0.00 | 92 | 1012.8 |
| 20260507054703 | 16 | 135 | 0.0 | 1.6 | 0.00 | 0.56 | 0.00 | 92 | 1012.8 |
| 20260507054203 | 16 | 214 | 0.0 | 3.2 | 0.00 | 0.56 | 0.00 | 92 | 1012.9 |
| 20260507053703 | 16 | 269 | 0.0 | 1.6 | 0.00 | 0.56 | 0.00 | 92 | 1012.7 |
| 20260507053203 | 16 | 66 | 0.0 | 1.6 | 0.00 | 0.56 | 0.00 | 92 | 1012.5 |
| 20260507052703 | 16 | 272 | 0.0 | 3.2 | 0.00 | 0.56 | 0.00 | 92 | 1012.6 |
| 20260507052202 | 16 | 291 | 0.0 | 3.2 | 0.00 | 0.56 | 0.00 | 92 | 1012.1 |
| 20260507051703 | 16 | 171 | 0.0 | 1.6 | 0.00 | 0.56 | 0.00 | 92 | 1012.7 |
| 20260507051202 | 16 | 261 | 0.0 | 3.2 | 0.00 | 0.56 | 0.00 | 92 | 1012.6 |
| 20260507050202 | 16 | 171 | 1.6 | 3.2 | 0.00 | 0.56 | 0.00 | 92 | 1012.7 |
| 20260507045703 | 16 | 143 | 1.6 | 4.8 | 0.00 | 0.56 | 0.00 | 92 | 1012.4 |
| 20260507045203 | 16 | 141 | 1.6 | 4.8 | 0.00 | 0.56 | 0.00 | 92 | 1012.8 |
| 20260507044703 | 16 | 147 | 1.6 | 3.2 | 0.00 | 0.56 | 0.00 | 92 | 1013.0 |
| 20260507044203 | 16 | 166 | 1.6 | 3.2 | 0.00 | 0.56 | 0.00 | 92 | 1013.1 |
| 20260507043703 | 16 | 257 | 3.2 | 4.8 | 0.00 | 0.56 | 0.00 | 92 | 1013.1 |
| 20260507042702 | 16 | 187 | 3.2 | 4.8 | 0.00 | 0.56 | 0.00 | 92 | 1013.5 |
| 20260507042203 | 16 | 219 | 1.6 | 9.7 | 0.00 | 0.56 | 0.00 | 92 | 1013.3 |
| 20260507041703 | 16 | 221 | 3.2 | 12.9 | 0.00 | 0.56 | 0.00 | 92 | 1013.4 |
| 20260507041203 | 16 | 218 | 3.2 | 8.0 | 0.00 | 0.56 | 0.00 | 92 | 1013.5 |
| 20260507040702 | 16 | 180 | 1.6 | 4.8 | 0.00 | 0.56 | 0.00 | 92 | 1013.4 |
| 20260507035703 | 16 | 172 | 3.2 | 9.7 | 0.00 | 0.56 | 0.56 | 92 | 1013.6 |
| 20260507035203 | 16 | 189 | 3.2 | 4.8 | 0.00 | 0.56 | 0.56 | 92 | 1013.7 |
| 20260507034703 | 16 | 210 | 4.8 | 11.3 | 0.00 | 0.56 | 0.56 | 92 | 1013.6 |
| 20260507034203 | 16 | 226 | 4.8 | 11.3 | 0.00 | 0.56 | 0.56 | 92 | 1013.5 |
| 20260507033703 | 16 | 222 | 4.8 | 14.5 | 0.00 | 0.56 | 0.56 | 92 | 1013.7 |
| 20260507032703 | 16 | 191 | 1.6 | 9.7 | 0.00 | 0.56 | 0.56 | 92 | 1013.4 |
| 20260507032203 | 16 | 171 | 4.8 | 11.3 | 0.00 | 0.56 | 0.56 | 92 | 1013.5 |
| 20260507031703 | 16 | 169 | 3.2 | 8.0 | 0.00 | 0.56 | 0.56 | 92 | 1013.9 |
| 20260507031202 | 16 | 203 | 3.2 | 9.7 | 0.00 | 0.56 | 0.56 | 92 | 1013.6 |
| 20260507030703 | 16 | 196 | 1.6 | 8.0 | 0.00 | 0.56 | 0.56 | 92 | 1013.6 |
| 20260507030203 | 16 | 203 | 1.6 | 4.8 | 0.00 | 0.56 | 0.56 | 92 | 1013.4 |
| 20260507025703 | 16 | 170 | 1.6 | 4.8 | 0.03 | 0.56 | 0.56 | 92 | 1013.7 |
| 20260507025203 | 16 | 272 | 1.6 | 4.8 | 0.03 | 0.56 | 0.56 | 92 | 1013.5 |
| 20260507024703 | 16 | 210 | 1.6 | 4.8 | 0.03 | 0.56 | 0.56 | 92 | 1013.5 |
| 20260507024203 | 16 | 194 | 1.6 | 4.8 | 0.05 | 0.56 | 0.56 | 91 | 1013.4 |
| 20260507023703 | 16 | 181 | 3.2 | 9.7 | 0.10 | 0.56 | 0.56 | 91 | 1013.5 |
| 20260507023203 | 16 | 209 | 1.6 | 4.8 | 0.10 | 0.56 | 0.56 | 91 | 1013.4 |
| 20260507022702 | 16 | 239 | 1.6 | 4.8 | 0.13 | 0.56 | 0.56 | 91 | 1013.0 |
| 20260507022202 | 16 | 160 | 1.6 | 4.8 | 0.13 | 0.56 | 0.56 | 91 | 1013.1 |
| 20260507021702 | 16 | 211 | 3.2 | 4.8 | 0.13 | 0.56 | 0.56 | 91 | 1013.2 |
| 20260507021203 | 16 | 180 | 1.6 | 4.8 | 0.13 | 0.56 | 0.56 | 90 | 1013.4 |
| 20260507020703 | 17 | 277 | 1.6 | 8.0 | 0.13 | 0.56 | 0.56 | 90 | 1013.5 |
| 20260507020203 | 17 | 169 | 1.6 | 4.8 | 0.13 | 0.56 | 0.56 | 90 | 1013.7 |
| 20260507015703 | 17 | 184 | 3.2 | 9.7 | 0.10 | 0.53 | 0.53 | 90 | 1013.9 |
| 20260507015203 | 17 | 196 | 4.8 | 11.3 | 0.13 | 0.53 | 0.53 | 90 | 1013.9 |
| 20260507014703 | 17 | 153 | 4.8 | 16.1 | 0.13 | 0.53 | 0.53 | 90 | 1014.4 |
| 20260507014202 | 17 | 207 | 3.2 | 14.5 | 0.13 | 0.51 | 0.51 | 89 | 1014.6 |
| 20260507013703 | 17 | 226 | 3.2 | 11.3 | 0.10 | 0.46 | 0.46 | 89 | 1014.5 |
| 20260507012703 | 17 | 192 | 4.8 | 11.3 | 0.13 | 0.43 | 0.43 | 88 | 1014.4 |
| 20260507012202 | 17 | 207 | 3.2 | 8.0 | 0.13 | 0.43 | 0.43 | 88 | 1014.2 |
| 20260507011703 | 17 | 180 | 3.2 | 4.8 | 0.13 | 0.43 | 0.43 | 87 | 1014.1 |
| 20260507011203 | 17 | 203 | 3.2 | 9.7 | 0.13 | 0.43 | 0.43 | 87 | 1014.1 |
| 20260507010703 | 17 | 206 | 1.6 | 3.2 | 0.13 | 0.43 | 0.43 | 87 | 1013.7 |
| 20260507010203 | 17 | 265 | 1.6 | 4.8 | 0.13 | 0.43 | 0.43 | 86 | 1013.7 |
| 20260507005702 | 18 | 188 | 3.2 | 9.7 | 0.13 | 0.43 | 0.43 | 86 | 1013.5 |
| 20260507005202 | 18 | 219 | 1.6 | 9.7 | 0.10 | 0.41 | 0.41 | 86 | 1013.5 |
| 20260507004702 | 18 | 215 | 3.2 | 8.0 | 0.10 | 0.41 | 0.41 | 86 | 1013.4 |
| 20260507004203 | 18 | 227 | 1.6 | 4.8 | 0.08 | 0.38 | 0.38 | 86 | 1013.5 |
| 20260507003702 | 18 | 165 | 1.6 | 4.8 | 0.05 | 0.36 | 0.36 | 85 | 1013.9 |
| 20260507002703 | 18 | 208 | 3.2 | 9.7 | 0.00 | 0.30 | 0.30 | 84 | 1013.4 |
| 20260507002202 | 18 | 219 | 3.2 | 9.7 | 0.00 | 0.30 | 0.30 | 84 | 1013.5 |
| 20260507001703 | 19 | 202 | 3.2 | 4.8 | 0.00 | 0.30 | 0.30 | 83 | 1013.0 |
| 20260507001203 | 19 | 200 | 3.2 | 8.0 | 0.00 | 0.30 | 0.30 | 83 | 1012.9 |
| 20260507000204 | 19 | 203 | 1.6 | 8.0 | 0.00 | 0.30 | 0.30 | 82 | 1012.6 |
| 20260506235703 | 19 | 257 | 1.6 | 4.8 | 0.00 | 0.30 | 0.30 | 81 | 1012.6 |
| 20260506235202 | 19 | 186 | 8.0 | 14.5 | 0.00 | 0.30 | 0.30 | 80 | 1012.1 |
| 20260506234703 | 20 | 169 | 3.2 | 8.0 | 0.00 | 0.30 | 0.30 | 80 | 1012.7 |
| 20260506234203 | 20 | 195 | 4.8 | 14.5 | 0.00 | 0.30 | 0.30 | 80 | 1012.6 |
| 20260506233703 | 20 | 233 | 3.2 | 11.3 | 0.00 | 0.30 | 0.30 | 80 | 1012.8 |
| 20260506233203 | 20 | 201 | 8.0 | 19.3 | 0.00 | 0.30 | 0.30 | 79 | 1012.7 |
| 20260506232703 | 20 | 198 | 4.8 | 12.9 | 0.00 | 0.30 | 0.30 | 79 | 1012.8 |
| 20260506232203 | 20 | 195 | 4.8 | 14.5 | 0.00 | 0.30 | 0.30 | 79 | 1012.5 |
| 20260506231703 | 20 | 243 | 1.6 | 9.7 | 0.00 | 0.30 | 0.30 | 80 | 1012.4 |
| 20260506231203 | 20 | 213 | 3.2 | 12.9 | 0.00 | 0.30 | 0.30 | 79 | 1012.4 |
| 20260506230703 | 20 | 182 | 4.8 | 12.9 | 0.00 | 0.30 | 0.30 | 79 | 1012.4 |
| 20260506230203 | 20 | 206 | 4.8 | 14.5 | 0.00 | 0.30 | 0.30 | 79 | 1012.6 |
| 20260506225703 | 20 | 242 | 4.8 | 11.3 | 0.00 | 0.30 | 0.30 | 79 | 1012.8 |
| 20260506225202 | 21 | 212 | 4.8 | 11.3 | 0.00 | 0.30 | 0.30 | 79 | 1012.3 |
| 20260506224203 | 21 | 292 | 3.2 | 9.7 | 0.00 | 0.30 | 0.30 | 79 | 1012.2 |
| 20260506223703 | 21 | 218 | 1.6 | 4.8 | 0.00 | 0.30 | 0.30 | 79 | 1012.4 |
| 20260506223203 | 21 | 238 | 3.2 | 9.7 | 0.00 | 0.30 | 0.30 | 78 | 1012.6 |
| 20260506222703 | 21 | 275 | 3.2 | 9.7 | 0.00 | 0.30 | 0.30 | 77 | 1012.7 |
| 20260506222203 | 21 | 185 | 1.6 | 8.0 | 0.00 | 0.30 | 0.30 | 78 | 1012.6 |
| 20260506221703 | 21 | 217 | 3.2 | 8.0 | 0.00 | 0.30 | 0.30 | 77 | 1012.5 |
| 20260506221203 | 21 | 264 | 1.6 | 4.8 | 0.00 | 0.30 | 0.30 | 77 | 1012.3 |
| 20260506220703 | 21 | 280 | 1.6 | 3.2 | 0.00 | 0.30 | 0.30 | 78 | 1012.0 |
| 20260506220203 | 21 | 227 | 1.6 | 4.8 | 0.00 | 0.30 | 0.30 | 77 | 1012.0 |
| 20260506215702 | 21 | 295 | 1.6 | 4.8 | 0.00 | 0.30 | 0.30 | 77 | 1012.0 |
| 20260506215202 | 21 | 322 | 1.6 | 4.8 | 0.00 | 0.30 | 0.30 | 77 | 1012.1 |
| 20260506213703 | 21 | 169 | 1.6 | 9.7 | 0.00 | 0.30 | 0.30 | 77 | 1012.3 |
| 20260506213204 | 21 | 239 | 1.6 | 9.7 | 0.00 | 0.30 | 0.30 | 76 | 1012.3 |
| 20260506212703 | 21 | 202 | 3.2 | 11.3 | 0.00 | 0.30 | 0.30 | 76 | 1012.5 |
| 20260506211703 | 21 | 189 | 6.4 | 14.5 | 0.00 | 0.30 | 0.30 | 74 | 1012.8 |
| 20260506211203 | 21 | 256 | 4.8 | 14.5 | 0.00 | 0.30 | 0.30 | 74 | 1012.8 |
| 20260506210703 | 21 | 216 | 4.8 | 24.1 | 0.00 | 0.30 | 0.30 | 73 | 1012.6 |
| 20260506210203 | 22 | 290 | 3.2 | 11.3 | 0.00 | 0.30 | 0.30 | 74 | 1012.6 |
| 20260506205703 | 22 | 207 | 8.0 | 24.1 | 0.00 | 0.30 | 0.30 | 73 | 1012.6 |
| 20260506205203 | 22 | 236 | 9.7 | 24.1 | 0.00 | 0.30 | 0.30 | 73 | 1012.6 |
| 20260506204703 | 22 | 277 | 3.2 | 12.9 | 0.00 | 0.30 | 0.30 | 74 | 1012.7 |
| 20260506204203 | 22 | 224 | 4.8 | 11.3 | 0.00 | 0.30 | 0.30 | 75 | 1012.9 |
| 20260506203703 | 22 | 230 | 3.2 | 8.0 | 0.00 | 0.30 | 0.30 | 75 | 1012.8 |
| 20260506203203 | 21 | 264 | 3.2 | 12.9 | 0.00 | 0.30 | 0.30 | 76 | 1012.9 |
| 20260506202702 | 21 | 30 | 3.2 | 19.3 | 0.00 | 0.30 | 0.30 | 75 | 1012.9 |
| 20260506202203 | 22 | 200 | 4.8 | 14.5 | 0.00 | 0.30 | 0.30 | 74 | 1012.8 |
| 20260506201703 | 22 | 256 | 4.8 | 12.9 | 0.00 | 0.30 | 0.30 | 74 | 1012.8 |
| 20260506200203 | 21 | 299 | 3.2 | 4.8 | 0.00 | 0.30 | 0.30 | 75 | 1012.7 |
| 20260506195703 | 21 | 240 | 3.2 | 8.0 | 0.00 | 0.30 | 0.30 | 74 | 1012.8 |
| 20260506194702 | 22 | 276 | 6.4 | 12.9 | 0.00 | 0.30 | 0.30 | 73 | 1012.7 |
| 20260506193203 | 22 | 190 | 3.2 | 14.5 | 0.00 | 0.30 | 0.30 | 74 | 1012.9 |
| 20260506192703 | 22 | 221 | 4.8 | 19.3 | 0.00 | 0.30 | 0.30 | 73 | 1013.2 |
| 20260506192203 | 22 | 240 | 8.0 | 16.1 | 0.00 | 0.30 | 0.30 | 72 | 1013.4 |
| 20260506191703 | 22 | 220 | 8.0 | 19.3 | 0.00 | 0.30 | 0.30 | 72 | 1013.4 |
| 20260506190203 | 22 | 254 | 4.8 | 11.3 | 0.00 | 0.30 | 0.30 | 74 | 1013.2 |
| 20260506185703 | 22 | 226 | 6.4 | 16.1 | 0.00 | 0.30 | 0.30 | 73 | 1013.0 |
| 20260506185203 | 22 | 232 | 6.4 | 14.5 | 0.00 | 0.30 | 0.30 | 74 | 1013.0 |
| 20260506184703 | 22 | 201 | 3.2 | 11.3 | 0.00 | 0.30 | 0.30 | 75 | 1012.9 |
| 20260506184203 | 22 | 177 | 3.2 | 16.1 | 0.00 | 0.30 | 0.30 | 75 | 1012.9 |
| 20260506183702 | 21 | 199 | 6.4 | 14.5 | 0.00 | 0.30 | 0.30 | 74 | 1012.8 |
| 20260506183204 | 21 | 227 | 8.0 | 19.3 | 0.00 | 0.30 | 0.30 | 74 | 1012.8 |
| 20260506182703 | 21 | 249 | 4.8 | 16.1 | 0.00 | 0.30 | 0.30 | 75 | 1012.7 |
| 20260506182202 | 21 | 221 | 9.7 | 14.5 | 0.00 | 0.30 | 0.30 | 75 | 1012.8 |
| 20260506181703 | 21 | 248 | 8.0 | 14.5 | 0.00 | 0.30 | 0.30 | 76 | 1012.8 |
| 20260506181203 | 21 | 215 | 3.2 | 8.0 | 0.00 | 0.30 | 0.30 | 78 | 1012.8 |
| 20260506180703 | 21 | 277 | 4.8 | 12.9 | 0.00 | 0.30 | 0.30 | 79 | 1012.9 |
| 20260506180203 | 21 | 227 | 4.8 | 14.5 | 0.00 | 0.30 | 0.30 | 78 | 1012.7 |
| 20260506175703 | 21 | 253 | 4.8 | 12.9 | 0.00 | 0.30 | 0.30 | 79 | 1012.8 |
| 20260506175203 | 20 | 232 | 4.8 | 16.1 | 0.00 | 0.30 | 0.30 | 80 | 1012.8 |
| 20260506174703 | 20 | 249 | 4.8 | 16.1 | 0.00 | 0.30 | 0.30 | 80 | 1012.8 |
| 20260506174203 | 20 | 290 | 6.4 | 14.5 | 0.00 | 0.30 | 0.30 | 80 | 1012.9 |
| 20260506173703 | 20 | 194 | 4.8 | 16.1 | 0.00 | 0.30 | 0.30 | 82 | 1012.9 |
| 20260506173203 | 20 | 189 | 3.2 | 4.8 | 0.00 | 0.30 | 0.30 | 83 | 1012.9 |
| 20260506172703 | 20 | 237 | 3.2 | 9.7 | 0.00 | 0.30 | 0.30 | 84 | 1012.9 |
| 20260506171703 | 19 | 183 | 4.8 | 11.3 | 0.00 | 0.30 | 0.30 | 87 | 1013.2 |
| 20260506171203 | 19 | 175 | 1.6 | 12.9 | 0.03 | 0.30 | 0.30 | 86 | 1013.4 |
| 20260506170703 | 19 | 241 | 3.2 | 11.3 | 0.03 | 0.30 | 0.30 | 88 | 1013.2 |
| 20260506170203 | 18 | 222 | 3.2 | 12.9 | 0.05 | 0.30 | 0.30 | 90 | 1013.3 |
| 20260506165703 | 18 | 317 | 3.2 | 4.8 | 0.05 | 0.30 | 0.30 | 90 | 1013.4 |
| 20260506164703 | 18 | 168 | 4.8 | 12.9 | 0.08 | 0.30 | 0.30 | 90 | 1013.3 |
| 20260506164203 | 18 | 199 | 4.8 | 12.9 | 0.10 | 0.30 | 0.30 | 90 | 1013.3 |
| 20260506163703 | 18 | 222 | 4.8 | 12.9 | 0.10 | 0.30 | 0.30 | 89 | 1013.3 |
| 20260506162203 | 18 | 220 | 1.6 | 16.1 | 0.13 | 0.30 | 0.30 | 89 | 1014.2 |
| 20260506161703 | 18 | 242 | 3.2 | 8.0 | 0.13 | 0.30 | 0.30 | 89 | 1014.2 |
| 20260506161203 | 18 | 193 | 4.8 | 14.5 | 0.10 | 0.28 | 0.28 | 89 | 1014.2 |
| 20260506160703 | 18 | 196 | 3.2 | 11.3 | 0.10 | 0.28 | 0.28 | 89 | 1014.4 |
| 20260506160203 | 17 | 208 | 6.4 | 19.3 | 0.08 | 0.25 | 0.25 | 89 | 1014.5 |
| 20260506155703 | 17 | 226 | 8.0 | 19.3 | 0.08 | 0.25 | 0.25 | 90 | 1014.4 |
| 20260506155203 | 17 | 200 | 4.8 | 12.9 | 0.08 | 0.25 | 0.25 | 91 | 1014.5 |
| 20260506154703 | 17 | 222 | 6.4 | 14.5 | 0.05 | 0.23 | 0.23 | 90 | 1014.6 |
| 20260506154202 | 17 | 256 | 6.4 | 20.9 | 0.03 | 0.20 | 0.20 | 91 | 1014.6 |
| 20260506153703 | 17 | 157 | 4.8 | 14.5 | 0.03 | 0.20 | 0.20 | 91 | 1014.6 |
| 20260506153203 | 17 | 191 | 4.8 | 11.3 | 0.03 | 0.20 | 0.20 | 91 | 1014.9 |
| 20260506152703 | 17 | 294 | 1.6 | 4.8 | 0.00 | 0.18 | 0.18 | 90 | 1014.7 |
| 20260506152203 | 17 | 317 | 1.6 | 3.2 | 0.00 | 0.18 | 0.18 | 90 | 1014.6 |
| 20260506151703 | 17 | 3 | 1.6 | 3.2 | 0.00 | 0.18 | 0.18 | 91 | 1014.4 |
| 20260506150203 | 16 | 45 | 1.6 | 3.2 | 0.00 | 0.18 | 0.18 | 91 | 1013.9 |
| 20260506145203 | 16 | 160 | 1.6 | 3.2 | 0.00 | 0.18 | 0.18 | 91 | 1013.7 |
| 20260506144703 | 16 | 163 | 1.6 | 4.8 | 0.03 | 0.18 | 0.18 | 91 | 1013.6 |
| 20260506144203 | 16 | 144 | 1.6 | 4.8 | 0.03 | 0.18 | 0.18 | 91 | 1013.4 |
| 20260506143703 | 16 | 176 | 1.6 | 4.8 | 0.03 | 0.18 | 0.18 | 91 | 1013.0 |
| 20260506143203 | 16 | 161 | 1.6 | 4.8 | 0.03 | 0.18 | 0.18 | 91 | 1013.1 |
| 20260506142703 | 16 | 186 | 1.6 | 3.2 | 0.03 | 0.18 | 0.18 | 91 | 1013.1 |
| 20260506142203 | 16 | 150 | 1.6 | 3.2 | 0.03 | 0.18 | 0.18 | 91 | 1013.1 |
| 20260506141702 | 16 | 104 | 0.0 | 3.2 | 0.03 | 0.18 | 0.18 | 91 | 1013.0 |
| 20260506141203 | 16 | 134 | 0.0 | 3.2 | 0.03 | 0.18 | 0.18 | 91 | 1013.1 |
| 20260506140203 | 15 | 255 | 1.6 | 3.2 | 0.03 | 0.18 | 0.18 | 91 | 1013.4 |
| 20260506135203 | 15 | 234 | 1.6 | 3.2 | 0.03 | 0.18 | 0.18 | 91 | 1013.5 |
| 20260506134703 | 15 | 280 | 0.0 | 1.6 | 0.00 | 0.15 | 0.15 | 91 | 1013.4 |
| 20260506134203 | 15 | 322 | 1.6 | 3.2 | 0.03 | 0.15 | 0.15 | 91 | 1013.4 |
| 20260506133703 | 15 | 283 | 1.6 | 3.2 | 0.03 | 0.15 | 0.15 | 90 | 1013.2 |
| 20260506133203 | 15 | 0 | 1.6 | 3.2 | 0.03 | 0.15 | 0.15 | 90 | 1013.1 |
| 20260506132703 | 15 | 28 | 3.2 | 4.8 | 0.03 | 0.15 | 0.15 | 91 | 1013.1 |
| 20260506132204 | 15 | 348 | 1.6 | 3.2 | 0.03 | 0.15 | 0.15 | 90 | 1012.9 |
| 20260506131703 | 15 | 142 | 1.6 | 1.6 | 0.03 | 0.15 | 0.15 | 90 | 1012.9 |
| 20260506131203 | 15 | 46 | 1.6 | 4.8 | 0.03 | 0.15 | 0.15 | 90 | 1012.8 |